Location: Forst
(46.9333°N, 15.4333°E)
Time: 03:07:12
(UTC+00:00)

Envisat - Pass Details

Date: 30 September 2021
Orbit: 764 x 766 km, 98.2° (Epoch: 23 October)

Event Time Altitude Azimuth Distance (km) Brightness Sun altitude
Rises 04:09:52 0° 14° (NNE) 3,243 6.5 -8.7°
Reaches altitude 10° 04:12:11 10° 16° (NNE) 2,312 5.8 -8.3°
Maximum altitude 04:17:18 79° 103° (ESE) 785 3.2 -7.4°
Drops below altitude 10° 04:22:22 10° 190° (S) 2,294 5.3 -6.5°
Sets 04:24:39 0° 192° (SSW) 3,216 6.1 -6.1°
